Time,TemperatureF,DewpointF,PressureIn,WindDirection,WindDirectionDegrees,WindSpeedMPH,WindSpeedGustMPH,Humidity,HourlyPrecipIn,Conditions,Clouds,dailyrainin,SoftwareType,DateUTC
2013-07-22 00:06:00,65.5,61.8,29.89,ESE,112,0.0,-999.0,88,-99.99,,,0.00,Acu-Link.com,2013-07-22 04:06:00,
2013-07-22 00:21:00,65.5,61.5,29.89,North,0,0.0,-999.0,87,-99.99,,,0.00,Acu-Link.com,2013-07-22 04:21:00,
2013-07-22 00:37:00,65.8,61.5,29.91,NNW,337,0.0,-999.0,86,-99.99,,,0.00,Acu-Link.com,2013-07-22 04:37:00,
2013-07-22 00:52:00,65.7,61.4,29.90,NNW,337,0.0,-999.0,86,-99.99,,,0.00,Acu-Link.com,2013-07-22 04:52:00,
2013-07-22 01:07:00,65.7,61.4,29.89,NNW,337,0.0,-999.0,86,-99.99,,,0.00,Acu-Link.com,2013-07-22 05:07:00,
2013-07-22 01:23:00,65.5,61.2,29.88,NNW,337,0.0,-999.0,86,-99.99,,,0.00,Acu-Link.com,2013-07-22 05:23:00,
2013-07-22 01:38:00,65.7,60.7,29.89,NNW,337,0.0,-999.0,84,-99.99,,,0.00,Acu-Link.com,2013-07-22 05:38:00,
2013-07-22 01:53:00,66.0,60.3,29.89,WNW,292,3.2,-999.0,82,-99.99,,,0.00,Acu-Link.com,2013-07-22 05:53:00,
2013-07-22 02:08:00,64.0,61.6,29.92,SSW,202,3.7,-999.0,92,-99.99,,,0.01,Acu-Link.com,2013-07-22 06:08:00,
2013-07-22 02:24:00,63.3,61.8,29.91,East,90,0.0,-999.0,95,-99.99,,,0.21,Acu-Link.com,2013-07-22 06:24:00,
2013-07-22 02:39:00,63.0,61.5,29.90,North,0,0.0,-999.0,95,-99.99,,,0.24,Acu-Link.com,2013-07-22 06:39:00,
2013-07-22 02:54:00,62.6,61.1,29.89,NNW,337,1.7,-999.0,95,-99.99,,,0.27,Acu-Link.com,2013-07-22 06:54:00,
2013-07-22 03:09:00,62.4,60.9,29.88,NNW,337,2.7,-999.0,95,-99.99,,,0.27,Acu-Link.com,2013-07-22 07:09:00,
2013-07-22 03:25:00,62.2,61.0,29.87,SW,225,2.7,-999.0,96,-99.99,,,0.27,Acu-Link.com,2013-07-22 07:25:00,
2013-07-22 03:40:00,62.1,60.9,29.86,NW,315,2.2,-999.0,96,-99.99,,,0.27,Acu-Link.com,2013-07-22 07:40:00,
2013-07-22 03:55:00,61.9,60.7,29.87,NW,315,0.0,-999.0,96,-99.99,,,0.27,Acu-Link.com,2013-07-22 07:55:00,
2013-07-22 04:13:00,61.9,60.7,29.86,NW,315,1.7,-999.0,96,-99.99,,,0.27,Acu-Link.com,2013-07-22 08:13:00,
2013-07-22 04:28:00,61.9,60.7,29.86,NW,315,0.0,-999.0,96,-99.99,,,0.27,Acu-Link.com,2013-07-22 08:28:00,
2013-07-22 04:43:00,61.9,61.0,29.86,NW,315,0.0,-999.0,97,-99.99,,,0.27,Acu-Link.com,2013-07-22 08:43:00,
2013-07-22 04:58:00,61.7,60.8,29.85,NW,315,0.0,-999.0,97,-99.99,,,0.27,Acu-Link.com,2013-07-22 08:58:00,
2013-07-22 05:14:00,61.7,60.8,29.84,NW,315,0.0,-999.0,97,-99.99,,,0.27,Acu-Link.com,2013-07-22 09:14:00,
2013-07-22 05:29:00,61.7,60.8,29.84,NW,315,0.0,-999.0,97,-99.99,,,0.27,Acu-Link.com,2013-07-22 09:29:00,
2013-07-22 05:44:00,61.7,60.8,29.84,NW,315,0.0,-999.0,97,-99.99,,,0.27,Acu-Link.com,2013-07-22 09:44:00,
2013-07-22 05:59:00,61.7,60.8,29.85,NW,315,0.0,-999.0,97,-99.99,,,0.27,Acu-Link.com,2013-07-22 09:59:00,
2013-07-22 06:14:00,61.9,61.3,29.85,NW,315,0.0,-999.0,98,-99.99,,,0.27,Acu-Link.com,2013-07-22 10:14:00,
2013-07-22 06:30:00,61.9,61.3,29.85,NW,315,0.0,-999.0,98,-99.99,,,0.27,Acu-Link.com,2013-07-22 10:30:00,
2013-07-22 06:45:00,61.9,61.3,29.84,NW,315,0.0,-999.0,98,-99.99,,,0.27,Acu-Link.com,2013-07-22 10:45:00,
2013-07-22 07:00:00,62.1,61.5,29.84,NW,315,0.0,-999.0,98,-99.99,,,0.27,Acu-Link.com,2013-07-22 11:00:00,
2013-07-22 07:15:00,62.2,61.6,29.82,NW,315,0.0,-999.0,98,-99.99,,,0.27,Acu-Link.com,2013-07-22 11:15:00,
2013-07-22 07:31:00,62.6,62.0,29.83,NW,315,0.0,-999.0,98,-99.99,,,0.27,Acu-Link.com,2013-07-22 11:31:00,
2013-07-22 07:46:00,62.8,62.2,29.83,NW,315,1.1,-999.0,98,-99.99,,,0.27,Acu-Link.com,2013-07-22 11:46:00,
2013-07-22 08:01:00,63.1,62.2,29.83,NW,315,0.0,-999.0,97,-99.99,,,0.27,Acu-Link.com,2013-07-22 12:01:00,
2013-07-22 08:17:00,63.7,62.8,29.84,NW,315,0.0,-999.0,97,-99.99,,,0.27,Acu-Link.com,2013-07-22 12:17:00,
2013-07-22 08:32:00,64.4,63.5,29.83,NW,315,0.0,-999.0,97,-99.99,,,0.27,Acu-Link.com,2013-07-22 12:32:00,
2013-07-22 08:47:00,65.3,64.1,29.83,NW,315,0.0,-999.0,96,-99.99,,,0.27,Acu-Link.com,2013-07-22 12:47:00,
2013-07-22 09:03:00,66.0,64.5,29.83,ESE,112,0.0,-999.0,95,-99.99,,,0.27,Acu-Link.com,2013-07-22 13:03:00,
2013-07-22 09:18:00,65.8,64.3,29.83,NW,315,0.0,-999.0,95,-99.99,,,0.27,Acu-Link.com,2013-07-22 13:18:00,
2013-07-22 09:33:00,66.2,64.7,29.83,NW,315,0.0,-999.0,95,-99.99,,,0.27,Acu-Link.com,2013-07-22 13:33:00,
2013-07-22 09:48:00,67.5,65.7,29.83,NW,315,0.0,-999.0,94,-99.99,,,0.27,Acu-Link.com,2013-07-22 13:48:00,
2013-07-22 10:04:00,69.4,66.0,29.82,SSE,157,2.7,-999.0,89,-99.99,,,0.27,Acu-Link.com,2013-07-22 14:04:00,
2013-07-22 10:19:00,71.1,68.0,29.82,East,90,0.0,-999.0,90,-99.99,,,0.27,Acu-Link.com,2013-07-22 14:19:00,
2013-07-22 10:34:00,71.2,67.8,29.81,East,90,1.7,-999.0,89,-99.99,,,0.27,Acu-Link.com,2013-07-22 14:34:00,
2013-07-22 10:49:00,74.1,69.3,29.81,ESE,112,3.2,-999.0,85,-99.99,,,0.27,Acu-Link.com,2013-07-22 14:49:00,
2013-07-22 11:04:00,73.4,69.3,29.80,North,0,1.7,-999.0,87,-99.99,,,0.27,Acu-Link.com,2013-07-22 15:04:00,
2013-07-22 11:20:00,74.5,70.0,29.80,SSE,157,2.2,-999.0,86,-99.99,,,0.27,Acu-Link.com,2013-07-22 15:20:00,
2013-07-22 11:35:00,75.2,70.7,29.80,SSE,157,2.7,-999.0,86,-99.99,,,0.27,Acu-Link.com,2013-07-22 15:35:00,
2013-07-22 11:50:00,76.3,70.0,29.80,SW,225,2.7,-999.0,81,-99.99,,,0.27,Acu-Link.com,2013-07-22 15:50:00,
2013-07-22 12:05:00,76.1,70.2,29.80,SSE,157,2.7,-999.0,82,-99.99,,,0.27,Acu-Link.com,2013-07-22 16:05:00,
2013-07-22 12:21:00,75.4,70.6,29.80,SE,135,3.7,-999.0,85,-99.99,,,0.27,Acu-Link.com,2013-07-22 16:21:00,
2013-07-22 12:36:00,77.7,69.5,29.79,SW,225,3.2,-999.0,76,-99.99,,,0.27,Acu-Link.com,2013-07-22 16:36:00,
2013-07-22 12:51:00,78.8,70.6,29.79,SE,135,4.7,-999.0,76,-99.99,,,0.27,Acu-Link.com,2013-07-22 16:51:00,
2013-07-22 13:07:00,79.7,70.3,29.79,NNW,337,3.2,-999.0,73,-99.99,,,0.27,Acu-Link.com,2013-07-22 17:07:00,
2013-07-22 13:22:00,79.9,71.2,29.78,South,180,0.0,-999.0,75,-99.99,,,0.27,Acu-Link.com,2013-07-22 17:22:00,
2013-07-22 13:37:00,80.4,70.5,29.77,East,90,4.2,-999.0,72,-99.99,,,0.27,Acu-Link.com,2013-07-22 17:37:00,
2013-07-22 13:53:00,82.0,70.4,29.77,SE,135,4.7,-999.0,68,-99.99,,,0.27,Acu-Link.com,2013-07-22 17:53:00,
2013-07-22 14:23:00,81.7,68.8,29.76,ESE,112,2.7,-999.0,65,-99.99,,,0.27,Acu-Link.com,2013-07-22 18:23:00,
2013-07-22 14:39:00,82.8,69.8,29.76,SE,135,2.7,-999.0,65,-99.99,,,0.27,Acu-Link.com,2013-07-22 18:39:00,
2013-07-22 14:54:00,82.9,70.8,29.76,ESE,112,2.7,-999.0,67,-99.99,,,0.27,Acu-Link.com,2013-07-22 18:54:00,
2013-07-22 15:24:00,84.9,69.4,29.75,West,270,6.8,-999.0,60,-99.99,,,0.27,Acu-Link.com,2013-07-22 19:24:00,
2013-07-22 15:55:00,84.6,69.6,29.74,NW,315,2.7,-999.0,61,-99.99,,,0.27,Acu-Link.com,2013-07-22 19:55:00,
2013-07-22 16:10:00,84.0,68.1,29.73,South,180,2.7,-999.0,59,-99.99,,,0.27,Acu-Link.com,2013-07-22 20:10:00,
2013-07-22 16:25:00,85.8,69.8,29.72,WNW,292,4.2,-999.0,59,-99.99,,,0.27,Acu-Link.com,2013-07-22 20:25:00,
2013-07-22 16:40:00,83.7,69.7,29.72,WSW,247,5.8,-999.0,63,-99.99,,,0.27,Acu-Link.com,2013-07-22 20:40:00,
2013-07-22 16:55:00,86.0,71.0,29.70,West,270,0.0,-999.0,61,-99.99,,,0.27,Acu-Link.com,2013-07-22 20:55:00,
2013-07-22 17:11:00,85.1,68.1,29.70,SSE,157,3.2,-999.0,57,-99.99,,,0.27,Acu-Link.com,2013-07-22 21:11:00,
2013-07-22 17:26:00,85.5,68.5,29.69,East,90,4.2,-999.0,57,-99.99,,,0.27,Acu-Link.com,2013-07-22 21:26:00,
2013-07-22 17:41:00,84.9,68.9,29.68,SSE,157,3.2,-999.0,59,-99.99,,,0.27,Acu-Link.com,2013-07-22 21:41:00,
2013-07-22 17:56:00,83.1,69.2,29.68,ESE,112,1.7,-999.0,63,-99.99,,,0.27,Acu-Link.com,2013-07-22 21:56:00,
2013-07-22 18:12:00,85.3,69.3,29.67,WNW,292,1.7,-999.0,59,-99.99,,,0.27,Acu-Link.com,2013-07-22 22:12:00,
2013-07-22 18:27:00,85.3,70.3,29.67,East,90,2.7,-999.0,61,-99.99,,,0.27,Acu-Link.com,2013-07-22 22:27:00,
2013-07-22 18:42:00,84.7,68.8,29.67,SE,135,7.8,-999.0,59,-99.99,,,0.27,Acu-Link.com,2013-07-22 22:42:00,
2013-07-22 18:57:00,83.7,69.3,29.67,WSW,247,1.7,-999.0,62,-99.99,,,0.27,Acu-Link.com,2013-07-22 22:57:00,
2013-07-22 19:12:00,82.4,69.0,29.66,South,180,0.0,-999.0,64,-99.99,,,0.27,Acu-Link.com,2013-07-22 23:12:00,
2013-07-22 19:27:00,81.3,69.3,29.66,SE,135,1.1,-999.0,67,-99.99,,,0.27,Acu-Link.com,2013-07-22 23:27:00,
2013-07-22 19:43:00,80.6,68.6,29.66,South,180,5.8,-999.0,67,-99.99,,,0.27,Acu-Link.com,2013-07-22 23:43:00,
2013-07-22 19:58:00,79.9,68.4,29.65,ENE,67,2.7,-999.0,68,-99.99,,,0.27,Acu-Link.com,2013-07-22 23:58:00,
2013-07-22 20:13:00,78.8,68.6,29.65,West,270,2.7,-999.0,71,-99.99,,,0.27,Acu-Link.com,2013-07-23 00:13:00,
2013-07-22 20:29:00,77.7,68.3,29.66,ESE,112,1.7,-999.0,73,-99.99,,,0.27,Acu-Link.com,2013-07-23 00:29:00,
2013-07-22 20:44:00,76.8,68.3,29.67,NE,45,0.0,-999.0,75,-99.99,,,0.27,Acu-Link.com,2013-07-23 00:44:00,
2013-07-22 20:59:00,75.7,68.7,29.67,ENE,67,0.0,-999.0,79,-99.99,,,0.27,Acu-Link.com,2013-07-23 00:59:00,
2013-07-22 21:14:00,74.7,68.5,29.67,East,90,0.0,-999.0,81,-99.99,,,0.27,Acu-Link.com,2013-07-23 01:14:00,
2013-07-22 21:30:00,73.8,68.3,29.68,ESE,112,1.1,-999.0,83,-99.99,,,0.27,Acu-Link.com,2013-07-23 01:30:00,
2013-07-22 21:45:00,73.0,68.6,29.68,ESE,112,1.7,-999.0,86,-99.99,,,0.27,Acu-Link.com,2013-07-23 01:45:00,
2013-07-22 22:00:00,72.3,68.2,29.68,ESE,112,0.0,-999.0,87,-99.99,,,0.27,Acu-Link.com,2013-07-23 02:00:00,
2013-07-22 22:15:00,71.8,68.4,29.67,ESE,112,0.0,-999.0,89,-99.99,,,0.27,Acu-Link.com,2013-07-23 02:15:00,
2013-07-22 22:30:00,71.2,67.8,29.66,ESE,112,2.7,-999.0,89,-99.99,,,0.27,Acu-Link.com,2013-07-23 02:30:00,
2013-07-22 22:46:00,70.9,67.8,29.67,ENE,67,0.0,-999.0,90,-99.99,,,0.27,Acu-Link.com,2013-07-23 02:46:00,
2013-07-22 23:01:00,70.7,67.6,29.68,ESE,112,2.7,-999.0,90,-99.99,,,0.27,Acu-Link.com,2013-07-23 03:01:00,
2013-07-22 23:16:00,70.9,67.5,29.69,South,180,0.0,-999.0,89,-99.99,,,0.27,Acu-Link.com,2013-07-23 03:16:00,
2013-07-22 23:32:00,70.5,67.4,29.68,SE,135,3.7,-999.0,90,-99.99,,,0.27,Acu-Link.com,2013-07-23 03:32:00,
2013-07-22 23:47:00,70.7,67.3,29.68,SE,135,1.7,-999.0,89,-99.99,,,0.27,Acu-Link.com,2013-07-23 03:47:00,